Flag for U.S.A. Weather past 2 weeks in Scranton, Pennsylvania, U.S.A.

Now
63 °F

Mostly cloudy.


Feels Like: 63 °F
Forecast: 54 / 72 °F
Wind: 3 mph from East

Location: Barre - Scranton - Wilkes-Barre / Scranton International Airport

Current Time: Oct 1, 2014 at 9:26:04 PM

Latest Report: Oct 1, 2014 at 8:54 PM


Visibility: 10 mi

Pressure: 30.07 "Hg

Humidity: 73%

Dew point: 54 °F

Location of ScrantonLocation

Historic Weather in Scranton — Graph

°F

Scranton temperature yesterday

Maximum temperature yesterday: 73 °F (at 12:54 PM)
Minimum temperature yesterday: 58 °F (at 5:54 AM)
Average temperature yesterday: 65 °F

Past Weeks' High & Low Weather Summary

 TemperatureHumidityPressure
High83 °F (Sep 27, 2:54 PM)96% (Sep 26, 7:54 AM)30.54 "Hg (Sep 26, 7:54 AM)
Low41 °F (Sep 23, 4:54 AM)27% (Sep 27, 2:54 PM)29.59 "Hg (Sep 21, 5:54 PM)
Average61 °F69%30.12 "Hg
* Reported Sep 16 7:54 PM — Oct 1 7:54 PM, Scranton, Weather by CustomWeather, © 2014

Note: Actual official high and low records may vary slightly from our data, if they occured in-between our weather recording intervals... More about our weather records

Advertising

Scranton weather history for previous 24 hours

 ConditionsComfort  
Time TempWeatherWind HumidityBarometerVisibility
7:54 PM
Oct 1
63 °FPassing clouds.6 mph73%30.05 "Hg10 mi
6:54 PM66 °FSunny.5 mph63%30.03 "Hg10 mi
5:54 PM69 °FSunny.6 mph57%30.01 "Hg10 mi
4:54 PM70 °FPartly sunny.6 mph55%30.01 "Hg10 mi
3:54 PM72 °FPartly sunny.12 mph49%30.00 "Hg10 mi
2:54 PM71 °FPartly sunny.7 mph53%30.01 "Hg10 mi
1:54 PM72 °FPartly sunny.7 mph52%30.01 "Hg10 mi
12:54 PM72 °FBroken clouds.3 mph52%30.02 "Hg10 mi
11:54 AM68 °FMore clouds than sun.3 mph63%30.05 "Hg10 mi
10:54 AM67 °FOvercast.No wind66%30.05 "Hg10 mi
9:54 AM63 °FOvercast.5 mph75%30.05 "Hg10 mi
8:54 AM62 °FMostly cloudy.No wind78%30.03 "Hg10 mi
7:54 AM60 °FClear.7 mph83%30.01 "Hg9 mi
6:54 AM59 °FClear.6 mph87%30.00 "Hg10 mi
5:54 AM60 °FPassing clouds.3 mph86%29.98 "Hg8 mi
4:54 AM60 °FPartly cloudy.No wind86%29.98 "Hg9 mi
3:54 AM62 °FLight rain. Overcast.No wind80%29.98 "Hg10 mi
2:54 AM61 °FOvercast.No wind87%29.99 "Hg9 mi
2:04 AM62 °FMostly cloudy.No wind80%30.01 "Hg9 mi
1:54 AM62 °FMostly cloudy.No wind80%29.98 "Hg9 mi
12:54 AM60 °FPassing clouds.3 mph86%29.98 "Hg9 mi
11:54 PM
Sep 30
62 °FPassing clouds.No wind80%29.96 "Hg10 mi
10:54 PM63 °FOvercast.3 mph81%29.96 "Hg10 mi
9:54 PM64 °FPassing clouds.3 mph75%29.95 "Hg10 mi
Weather by CustomWeather, © 2014

See weather overviewHow to use our weather pages